カタログに戻る

STARLINK-37029

運用中通信VLEO
NORAD 68271·PAYLOAD·🇺🇸 United States

打ち上げ Mar 19, 2026 から Vandenberg Space Force Base

Loading…

次のパス (今後24時間)

TLE

最新Source: CelesTrak SupGP

元期: Sep 14, 2026, 22:49 UTC

1 68271C 26055K   26257.95118056 -.00047132  00000+0 -13924-2 0  2575
2 68271  53.1575 155.6342 0001321  85.5481 202.4933 15.34417314    13

AllMySatでSTARLINK-37029をリアルタイム追跡

Download on the App Store